User: anonymous   Login
Location: Unspecified
(0.0000°N, 0.0000°E)
Time: 09:19:20
(UTC+00:00)
Language:

COSMOS 2439 - Orbit

View from above orbital plane
View from above orbital plane
View from above satellite
View from above satellite

Ground track
Ground track

The orbit data is extracted from the following two-line orbital elements,

1 32956U 08025D   17268.89324639 +.00000009 +00000-0 -52821-5 0  9991
2 32956 082.5107 178.1992 0021805 067.9049 292.4337 12.43001755423937
Epoch (UTC): 25 September 2017 21:26:16
Eccentricity: 0.0021805
inclination: 82.5107°
perigee height: 1477 km
apogee height: 1511 km
right ascension of ascending node: 178.1992°
argument of perigee: 67.9049°
revolutions per day: 12.43001755
mean anomaly at epoch: 292.4337°
orbit number at epoch: 42393

The dashed part of the orbit path shows where the satellite is in the earth's shadow,  

DLR